Location: Newark
(34.9500°N, 139.9667°E)
Time: 15:02:49
(UTC+00:00)

Transit 2A - Pass Details

Date: 15 December 2019
Orbit: 601 x 958 km, 66.7° (Epoch: 28 January)

Event Time Altitude Azimuth Distance (km) Brightness Sun altitude
Rises 20:42:09 0° 229° (SW) 3,113 8.9 -11.8°
Reaches altitude 10° 20:44:48 10° 240° (WSW) 2,137 7.9 -11.3°
Maximum altitude 20:49:02 30° 302° (WNW) 1,157 6.4 -10.5°
Drops below altitude 10° 20:53:02 10° 5° (N) 2,002 8.0 -9.7°
Sets 20:55:28 0° 16° (NNE) 2,883 8.9 -9.2°
